Andalusia, AL

3:35 AM CDT on March 26, 2017 (GMT -0500)
Andalusia

Weather History for K79J - August, 2013

Change the Weather History Date:

Saturday, August 3, 2013

  Actual Average (KCEW) Record (KCEW)
Temperature  
Mean Temperature 84 °F -  
Max Temperature 93 °F 92 °F 99 °F (2011)
Min Temperature 75 °F 70 °F 64 °F (1998)
Cooling Degree Days 19    
Growing Degree Days 34 (Base 50)    
Moisture  
Dew Point 73 °F    
Average Humidity 73    
Maximum Humidity 94    
Minimum Humidity 44    
Precipitation  
Precipitation 0.00 in - - ()
Sea Level Pressure  
Sea Level Pressure 30.03 in    
Wind  
Wind Speed 2 mph (NW)    
Max Wind Speed 9 mph    
Max Gust Speed -    
Visibility 10 miles    
Events      
Averages and records for this station are not official NWS values.
T = Trace of Precipitation, MM = Missing Value Source: NWS Daily Summary

Daily Weather History Graph

Daily Weather History Graph

Search for Another Location

Airport or City:

Trip Planner

Search our weather history database for the weather conditions in past years. The results will help you decide how hot, cold, wet, or windy it might be!

Date:

Astronomy

Aug. 03, 2013 Rise Set
Actual Time 6:03 AM CDT 7:39 PM CDT
Civil Twilight 5:37 AM CDT 8:05 PM CDT
Nautical Twilight 5:05 AM CDT 8:36 PM CDT
Astronomical Twilight 4:32 AM CDT 9:09 PM CDT
Moon 3:15 AM CDT (8/3) 5:19 PM CDT (8/3)
Length of Visible Light 14h 28m
Length of Day
13h 35m
Waning Crescent, 9% of the Moon is Illuminated
Aug 3
Waning Crescent
Aug 6
New
Aug 14
First Quarter
Aug 20
Full
Aug 28
Last Quarter

Hourly Weather History & Observations

Time (CDT) Temp. Heat Index Dew Point Humidity Pressure Visibility Wind Dir Wind Speed Gust Speed Precip Events Conditions
12:56 AM 79.0 °F - 73.9 °F 84% 30.02 in 10.0 mi Calm Calm - N/A   Clear
1:56 AM 78.1 °F - 73.9 °F 87% 30.01 in 10.0 mi Calm Calm - N/A   Clear
2:56 AM 77.0 °F - 73.9 °F 90% 29.99 in 10.0 mi Calm Calm - N/A   Clear
3:56 AM 77.0 °F - 73.9 °F 90% 29.99 in 10.0 mi Calm Calm - N/A   Clear
4:56 AM 75.9 °F - 73.0 °F 91% 30.00 in 10.0 mi Calm Calm - N/A   Clear
5:16 AM 75.2 °F - 73.4 °F 94% 30.02 in 10.0 mi Calm Calm - N/A   Partly Cloudy
5:56 AM 75.9 °F - 72.0 °F 87% 30.00 in 10.0 mi Calm Calm - N/A   Clear
6:37 AM 75.2 °F - 73.4 °F 94% 30.03 in 10.0 mi Calm Calm - N/A   Partly Cloudy
6:56 AM 75.9 °F - 73.0 °F 91% 30.02 in 10.0 mi Calm Calm - N/A   Partly Cloudy
7:56 AM 79.0 °F - 75.0 °F 88% 30.04 in 10.0 mi WNW 3.5 mph - N/A   Clear
8:56 AM 84.0 °F 92.6 °F 75.9 °F 76% 30.05 in 10.0 mi Calm Calm - N/A   Clear
9:56 AM 87.1 °F 95.4 °F 73.9 °F 65% 30.06 in 10.0 mi Variable 6.9 mph - N/A   Clear
10:56 AM 89.1 °F 98.0 °F 73.9 °F 61% 30.07 in 10.0 mi NW 6.9 mph - N/A   Partly Cloudy
11:56 AM 90.0 °F 96.9 °F 72.0 °F 55% 30.06 in 10.0 mi Variable 6.9 mph - N/A   Scattered Clouds
12:56 PM 91.9 °F 97.4 °F 70.0 °F 48% 30.06 in 10.0 mi Variable 4.6 mph - N/A   Scattered Clouds
1:56 PM 91.9 °F 96.9 °F 69.1 °F 47% 30.04 in 10.0 mi NNW 6.9 mph - N/A   Partly Cloudy
2:56 PM 91.9 °F 95.4 °F 66.9 °F 44% 30.03 in 10.0 mi North 6.9 mph - N/A   Clear
3:56 PM 93.9 °F 99.1 °F 69.1 °F 44% 30.00 in 10.0 mi NNW 9.2 mph - N/A   Scattered Clouds
4:56 PM 93.0 °F 97.4 °F 68.0 °F 44% 30.01 in 10.0 mi NNE 5.8 mph - N/A   Partly Cloudy
5:56 PM 91.9 °F 96.9 °F 69.1 °F 47% 30.01 in 10.0 mi NE 3.5 mph - N/A   Clear
6:56 PM 88.0 °F 94.7 °F 72.0 °F 59% 30.03 in 10.0 mi Calm Calm - N/A   Clear
7:56 PM 81.0 °F 86.7 °F 75.0 °F 82% 30.03 in 10.0 mi Calm Calm - N/A   Clear
8:56 PM 80.1 °F 85.4 °F 75.9 °F 87% 30.04 in 10.0 mi Calm Calm - N/A   Clear
9:56 PM 79.0 °F - 75.0 °F 88% 30.06 in 10.0 mi SSW 4.6 mph - N/A   Clear
10:56 PM 81.0 °F 86.7 °F 75.0 °F 82% 30.06 in 10.0 mi WSW 3.5 mph - N/A   Clear
11:56 PM 80.1 °F 85.1 °F 75.0 °F 85% 30.05 in 10.0 mi West 3.5 mph - N/A   Clear